AE7VB Weather Reports


time (UTC)temp
C
wind
direction
speed
KPH
gust
KPH
rain 1hr
cm
rain 24hr
cm
rain mn
cm
humidity
%
barometer
mb
20260506230259 21 5 3.2 6.4 0.00 0.00 0.00 47 1017.9
20260506225226 22 2 1.6 8.0 0.00 0.00 0.00 46 1018.3
20260506224155 22 10 1.6 8.0 0.00 0.00 0.00 47 1018.3
20260506223122 22 8 3.2 6.4 0.00 0.00 0.00 46 1018.4
20260506222121 23 6 1.6 8.0 0.00 0.00 0.00 44 1018.5
20260506221120 23 304 3.2 9.7 0.00 0.00 0.00 46 1018.6
20260506220017 23 328 1.6 14.5 0.00 0.00 0.00 45 1018.6
20260506215016 24 301 3.2 14.5 0.00 0.00 0.00 41 1019.0
20260506213913 23 294 3.2 16.1 0.00 0.00 0.00 41 1019.0
20260506212911 24 251 4.8 14.5 0.00 0.00 0.00 39 1019.0
20260506211910 23 286 6.4 16.1 0.00 0.00 0.00 41 1019.0
20260506210908 23 272 3.2 20.9 0.00 0.00 0.00 42 1019.4
20260506205907 23 254 4.8 20.9 0.00 0.00 0.00 42 1019.4
20260506204906 23 262 3.2 16.1 0.00 0.00 0.00 42 1019.7
20260506203905 23 266 3.2 14.5 0.00 0.00 0.00 42 1019.7
20260506202903 23 253 3.2 14.5 0.00 0.00 0.00 42 1019.7
20260506201902 23 260 3.2 19.3 0.00 0.00 0.00 42 1019.9
20260506200830 23 260 4.8 19.3 0.00 0.00 0.00 43 1019.9
20260506195758 23 232 3.2 19.3 0.00 0.00 0.00 40 1019.7
20260506194757 23 278 4.8 19.3 0.00 0.00 0.00 43 1020.1
20260506193756 23 239 3.2 14.5 0.00 0.00 0.00 38 1020.0
20260506192755 23 231 3.2 19.3 0.00 0.00 0.00 39 1020.0
20260506191754 23 230 3.2 19.3 0.00 0.00 0.00 39 1020.3
20260506190753 22 238 3.2 14.5 0.00 0.00 0.00 41 1020.3
20260506185752 22 248 3.2 16.1 0.00 0.00 0.00 39 1020.6
20260506184751 22 251 4.8 17.7 0.00 0.00 0.00 41 1020.5
20260506183750 22 223 4.8 19.3 0.00 0.00 0.00 42 1020.6
20260506182718 22 261 4.8 17.7 0.00 0.00 0.00 42 1020.6
20260506181717 22 275 3.2 17.7 0.00 0.00 0.00 41 1020.7
20260506180716 22 233 3.2 17.7 0.00 0.00 0.00 38 1020.7
20260506175714 22 230 3.2 17.7 0.00 0.00 0.00 36 1020.8
20260506174713 22 244 3.2 16.1 0.00 0.00 0.00 38 1020.7
20260506173712 21 252 4.8 14.5 0.00 0.00 0.00 38 1021.0
20260506172711 20 28 1.6 6.4 0.00 0.00 0.00 49 1020.9
20260506171710 19 46 1.6 6.4 0.00 0.00 0.00 51 1020.6
20260506170638 18 28 1.6 6.4 0.00 0.00 0.00 52 1020.9
20260506165637 17 48 1.6 4.8 0.00 0.00 0.00 54 1021.1
20260506164636 17 52 1.6 4.8 0.00 0.00 0.00 51 1021.0
20260506163604 17 52 1.6 4.8 0.00 0.00 0.00 50 1021.0
20260506162603 16 57 1.6 4.8 0.00 0.00 0.00 51 1020.9
20260506161602 16 36 3.2 4.8 0.00 0.00 0.00 53 1020.7
20260506160600 15 11 1.6 4.8 0.00 0.00 0.00 53 1020.6
20260506155559 15 19 1.6 4.8 0.00 0.00 0.00 54 1020.9
20260506154558 15 18 1.6 4.8 0.00 0.00 0.00 59 1020.9
20260506153557 14 28 1.6 4.8 0.00 0.00 0.00 58 1020.8
20260506152524 13 30 1.6 4.8 0.00 0.00 0.00 57 1020.8
20260506151523 13 342 1.6 4.8 0.00 0.00 0.00 57 1020.8
20260506150523 13 334 3.2 4.8 0.00 0.00 0.00 60 1020.8
20260506145521 12 107 1.6 3.2 0.00 0.00 0.00 61 1020.9
20260506144520 12 134 1.6 3.2 0.00 0.00 0.00 61 1020.9
20260506143448 11 134 0.0 3.2 0.00 0.00 0.00 64 1020.9
20260506142447 11 132 0.0 1.6 0.00 0.00 0.00 62 1020.9
20260506141446 10 132 0.0 1.6 0.00 0.00 0.00 65 1021.2
20260506140444 10 132 0.0 0.0 0.00 0.00 0.00 67 1020.8
20260506135444 9 132 0.0 0.0 0.00 0.00 0.00 70 1021.2
20260506134443 9 132 0.0 1.6 0.00 0.00 0.00 72 1021.1
20260506133410 8 132 0.0 4.8 0.00 0.00 0.00 74 1021.1
20260506132409 8 132 3.2 4.8 0.00 0.00 0.00 74 1020.7
20260506131408 8 136 1.6 4.8 0.00 0.00 0.00 74 1020.7
20260506130407 8 137 0.0 4.8 0.00 0.00 0.00 74 1020.4
20260506125334 8 146 1.6 3.2 0.00 0.00 0.00 74 1020.8
20260506124333 8 146 0.0 4.8 0.00 0.00 0.00 72 1020.5
20260506123332 8 146 1.6 4.8 0.00 0.00 0.00 73 1020.5
20260506122331 8 144 1.6 4.8 0.00 0.00 0.00 73 1020.5
20260506121330 8 140 1.6 4.8 0.00 0.00 0.00 73 1020.4
20260506120329 7 150 1.6 3.2 0.00 0.00 0.00 73 1019.8
20260506115328 7 151 0.0 3.2 0.00 0.00 0.00 72 1019.9
20260506114327 7 151 0.0 4.8 0.00 0.00 0.00 73 1019.9
20260506113254 7 150 3.2 4.8 0.00 0.00 0.00 73 1019.9
20260506112222 7 151 1.6 1.6 0.00 0.00 0.00 72 1019.8
20260506111222 7 151 1.6 1.6 0.00 0.00 0.00 72 1019.9
20260506110221 7 150 0.0 0.0 0.00 0.00 0.00 71 1019.9
20260506105148 8 150 0.0 3.2 0.00 0.00 0.00 70 1020.0
20260506104147 7 150 1.6 3.2 0.00 0.00 0.00 71 1020.0
20260506103146 7 150 0.0 4.8 0.00 0.00 0.00 71 1020.0
20260506102113 7 150 3.2 4.8 0.00 0.00 0.00 72 1019.6
20260506101112 7 150 1.6 3.2 0.00 0.00 0.00 71 1019.5
20260506100111 7 149 1.6 3.2 0.00 0.00 0.00 71 1019.6
20260506095111 7 150 0.0 3.2 0.00 0.00 0.00 69 1019.7
20260506094110 8 150 0.0 1.6 0.00 0.00 0.00 68 1019.6
20260506093109 8 150 1.6 4.8 0.00 0.00 0.00 67 1019.6
20260506092108 8 149 1.6 4.8 0.00 0.00 0.00 68 1019.7
20260506091108 8 150 1.6 6.4 0.00 0.00 0.00 67 1019.7
20260506090107 8 187 1.6 4.8 0.00 0.00 0.00 67 1019.4
20260506085106 8 188 3.2 4.8 0.00 0.00 0.00 66 1019.4
20260506084106 8 188 1.6 4.8 0.00 0.00 0.00 67 1019.4
20260506083105 8 188 1.6 4.8 0.00 0.00 0.00 66 1019.5
20260506082104 9 223 1.6 4.8 0.00 0.00 0.00 64 1019.5
20260506081103 9 234 1.6 4.8 0.00 0.00 0.00 63 1019.6
20260506072956 9 155 1.6 6.4 0.00 0.00 0.00 64 1018.6
20260506071955 9 155 1.6 9.7 0.00 0.00 0.00 65 1018.6
20260506070954 9 154 3.2 9.7 0.00 0.00 0.00 65 1018.7
20260506061950 10 220 0.0 6.4 0.00 0.00 0.00 62 1018.7
20260506060949 11 218 4.8 6.4 0.00 0.00 0.00 59 1018.5
20260506050911 13 236 1.6 6.4 0.00 0.00 0.00 52 1018.2
20260506044908 13 276 3.2 11.3 0.00 0.00 0.00 50 1018.0
20260506043907 13 270 3.2 9.7 0.00 0.00 0.00 50 1018.0
20260506042834 13 272 3.2 11.3 0.00 0.00 0.00 50 1017.6
20260506041833 13 253 3.2 11.3 0.00 0.00 0.00 50 1017.6
20260506040833 13 268 4.8 12.9 0.00 0.00 0.00 51 1017.5
20260506035831 14 247 4.8 12.9 0.00 0.00 0.00 50 1017.5
20260506034830 14 261 4.8 11.3 0.00 0.00 0.00 50 1017.1
20260506033829 14 258 4.8 11.3 0.00 0.00 0.00 51 1017.1
20260506032757 15 257 3.2 12.9 0.00 0.00 0.00 51 1016.9
20260506031757 15 284 3.2 12.9 0.00 0.00 0.00 48 1016.9
20260506030755 15 286 6.4 11.3 0.00 0.00 0.00 49 1016.6
20260506025754 16 276 4.8 11.3 0.00 0.00 0.00 48 1016.7
20260506024722 17 295 3.2 12.9 0.00 0.00 0.00 46 1016.8
20260506023721 17 284 4.8 12.9 0.00 0.00 0.00 46 1016.5
20260506022720 18 280 4.8 14.5 0.00 0.00 0.00 45 1016.6
20260506021719 18 294 4.8 14.5 0.00 0.00 0.00 42 1016.6
20260506020647 18 297 3.2 14.5 0.00 0.00 0.00 40 1016.5
20260506015646 19 309 3.2 16.1 0.00 0.00 0.00 38 1016.4
20260506014614 20 305 3.2 16.1 0.00 0.00 0.00 37 1016.0
20260506013541 20 318 3.2 14.5 0.00 0.00 0.00 38 1015.9
20260506012540 20 330 3.2 14.5 0.00 0.00 0.00 38 1015.8
20260506011539 20 323 1.6 9.7 0.00 0.00 0.00 37 1015.8
20260506010539 21 323 3.2 14.5 0.00 0.00 0.00 35 1015.8
20260506005538 21 317 3.2 14.5 0.00 0.00 0.00 36 1015.8
20260506004536 21 319 3.2 9.7 0.00 0.00 0.00 38 1015.8
20260506003535 21 316 1.6 8.0 0.00 0.00 0.00 35 1015.8
20260506002534 21 321 3.2 14.5 0.00 0.00 0.00 35 1015.8
20260506001534 20 319 3.2 8.0 0.00 0.00 0.00 38 1015.8
20260506000532 20 10 1.6 8.0 0.00 0.00 0.00 38 1015.7
20260505235531 20 310 1.6 11.3 0.00 0.00 0.00 37 1015.8
20260505234530 21 303 3.2 17.7 0.00 0.00 0.00 37 1016.3
20260505233458 21 324 3.2 17.7 0.00 0.00 0.00 38 1016.0
20260505232457 20 312 3.2 16.1 0.00 0.00 0.00 40 1016.0
20260505231425 20 304 3.2 12.9 0.00 0.00 0.00 39 1016.0